TimeCDT,TemperatureF,Dew PointF,Humidity,Sea Level PressureIn,VisibilityMPH,Wind Direction,Wind SpeedMPH,Gust SpeedMPH,PrecipitationIn,Events,Conditions,WindDirDegrees,DateUTC
12:58 AM,54.0,48.4,81,30.22,10.0,SE,2.3,-,N/A,,Clear,130,2013-05-13 05:58:00
1:58 AM,51.8,47.5,85,30.21,10.0,ENE,1.2,-,N/A,,Clear,70,2013-05-13 06:58:00
2:58 AM,51.4,48.0,88,30.20,10.0,Calm,Calm,-,N/A,,Clear,0,2013-05-13 07:58:00
3:58 AM,50.0,47.1,90,30.20,10.0,Calm,Calm,-,N/A,,Clear,0,2013-05-13 08:58:00
4:58 AM,48.9,47.5,95,30.21,10.0,SE,2.3,-,N/A,,Clear,130,2013-05-13 09:58:00
5:58 AM,48.0,46.2,93,30.23,10.0,East,2.3,-,N/A,,Clear,80,2013-05-13 10:58:00
6:58 AM,47.7,47.1,98,30.25,5.0,SE,3.5,-,N/A,,Clear,130,2013-05-13 11:58:00
7:58 AM,56.5,53.8,91,30.26,10.0,SSE,4.6,-,N/A,,Scattered Clouds,160,2013-05-13 12:58:00
8:58 AM,64.9,50.0,58,30.28,10.0,South,11.5,-,N/A,,Clear,170,2013-05-13 13:58:00
9:58 AM,69.1,47.3,46,30.28,10.0,South,13.8,-,N/A,,Clear,180,2013-05-13 14:58:00
10:58 AM,72.9,48.7,42,30.29,10.0,South,10.4,-,N/A,,Clear,170,2013-05-13 15:58:00
11:58 AM,75.2,48.4,39,30.28,10.0,SSE,10.4,-,N/A,,Clear,160,2013-05-13 16:58:00
12:58 PM,77.2,46.4,34,30.27,10.0,South,11.5,-,N/A,,Clear,180,2013-05-13 17:58:00
1:58 PM,79.0,45.9,31,30.25,10.0,South,9.2,-,N/A,,Clear,190,2013-05-13 18:58:00
3:58 PM,81.5,43.5,26,30.20,10.0,SSW,12.7,18.4,N/A,,Clear,200,2013-05-13 20:58:00
4:58 PM,81.7,47.1,30,30.19,10.0,South,8.1,-,N/A,,Clear,190,2013-05-13 21:58:00
5:58 PM,81.0,48.4,32,30.18,10.0,SSW,12.7,-,N/A,,Clear,200,2013-05-13 22:58:00
6:58 PM,79.3,48.9,34,30.17,10.0,South,9.2,-,N/A,,Clear,190,2013-05-13 23:58:00
7:58 PM,75.6,49.6,40,30.15,10.0,South,10.4,-,N/A,,Clear,190,2013-05-14 00:58:00
8:58 PM,72.1,51.1,47,30.16,10.0,South,6.9,-,N/A,,Clear,190,2013-05-14 01:58:00
9:58 PM,70.7,51.4,50,30.18,10.0,South,9.2,-,N/A,,Clear,190,2013-05-14 02:58:00
10:58 PM,61.9,51.6,69,30.19,10.0,South,8.1,-,N/A,,Clear,180,2013-05-14 03:58:00
11:58 PM,66.4,50.9,57,30.19,10.0,South,6.9,-,N/A,,Clear,190,2013-05-14 04:58:00